Wind_Speed
25 26 22 22 19 20 20 16 19 23 27 25 28 26 21 25 27 33 36 37 36 41 46 54 61 64 69 79 76 75 73 70 67 64 60 58 56 53 44 36 37 38 43 56
27 28 25 25 23 23 25 21 24 27 28 30 29 28 17 17 24 31 34 35 34 37 39 44 50 57 67 71 78 84 85 77 77 78 68 55 56 50 49 31 33 45 46 45
28 28 27 27 25 26 27 25 28 28 27 28 27 33 18 18 18 25 32 39 41 39 36 39 42 46 53 62 68 76 82 85 80 79 81 78 73 66 54 46 40 41 39 36
27 29 29 25 28 29 28 31 33 33 31 28 26 28 15 18 17 21 29 39 43 39 41 42 43 44 46 48 53 62 69 74 76 78 82 85 81 76 77 78 71 63 52 44
26 30 31 27 30 32 32 33 36 37 34 32 28 20 21 19 23 28 33 38 45 39 39 42 48 51 52 52 51 51 54 57 62 68 70 75 85 83 81 83 88 77 74 71
28 30 32 31 33 35 34 35 39 40 37 36 31 26 24 27 27 29 33 37 42 47 45 46 48 49 53 56 57 57 57 57 58 57 59 66 71 77 82 87 87 89 81 70
31 32 33 36 38 36 38 40 41 41 41 40 36 31 31 31 32 31 32 36 39 42 44 44 47 51 54 55 56 57 59 61 62 62 61 60 62 65 72 81 88 94 95 91
33 33 35 38 43 40 42 44 44 43 43 43 43 38 36 36 35 35 36 36 39 42 46 50 54 56 57 57 54 56 59 61 63 66 66 65 65 66 67 69 74 82 88 90
35 34 37 40 46 49 46 46 45 44 47 49 49 42 38 40 39 38 39 40 43 49 54 58 61 65 68 67 63 62 61 59 62 65 69 70 69 69 70 72 74 75 79 82
38 40 42 41 45 50 52 50 48 46 47 50 52 47 47 46 43 41 41 45 51 55 62 65 68 71 73 69 68 68 69 69 68 67 68 71 75 76 76 76 77 79 80 82
43 47 49 48 48 48 49 48 51 50 48 47 49 53 49 46 45 46 51 55 58 61 62 66 68 74 72 68 65 67 71 71 73 73 72 72 74 77 80 81 81 82 84 87
45 48 52 52 48 45 46 48 49 48 49 50 50 47 52 51 51 54 55 55 54 56 56 59 65 69 71 70 70 67 67 70 70 72 75 77 77 77 80 82 86 88 90 92
48 48 51 53 47 44 46 46 45 46 48 48 48 54 56 58 58 56 56 56 51 52 52 53 54 56 61 67 68 68 69 68 70 71 71 74 76 79 81 83 86 90 92 92
48 48 47 50 48 44 45 45 46 45 44 50 55 56 60 61 59 59 55 54 54 53 53 52 52 54 57 61 63 66 68 67 68 71 72 73 74 76 79 82 85 88 91 94
52 51 48 47 49 45 43 45 44 44 49 51 53 56 57 59 60 60 58 57 60 59 58 60 62 61 63 64 66 67 66 68 69 69 72 77 79 81 85 87 89 92 94 94
53 54 48 47 47 46 45 42 44 48 52 55 56 59 58 59 59 60 61 62 64 67 68 70 72 70 68 67 67 63 65 64 69 72 73 75 80 83 89 92 92 94 93 92
55 56 52 49 48 46 48 48 49 53 56 60 61 62 63 63 63 65 67 67 69 73 75 78 78 76 69 66 62 60 61 65 67 71 74 74 77 80 84 89 91 91 89 87
53 56 52 51 51 50 49 51 54 58 59 62 65 65 66 66 66 68 69 71 75 77 80 81 77 73 72 67 64 60 60 61 65 68 69 73 77 78 79 81 84 87 86 83
53 51 51 52 52 52 53 54 59 61 62 66 68 69 68 69 69 68 70 74 79 82 81 77 77 76 70 67 66 64 65 66 66 67 70 72 73 74 75 78 82 85 85 85
53 52 51 51 51 53 57 57 60 64 65 67 68 70 71 72 72 71 73 77 79 78 79 77 81 73 70 68 66 70 69 65 67 70 73 74 75 76 76 77 78 80 80 80
53 51 52 53 52 55 58 60 63 66 66 69 69 71 72 74 74 77 82 80 80 84 80 84 75 70 71 71 71 76 72 67 69 71 74 77 76 76 77 77 77 77 77 77
52 53 56 57 57 58 62 64 66 67 68 68 70 71 73 74 79 83 83 84 87 84 85 75 69 70 73 76 79 74 70 71 72 74 75 76 75 75 74 75 76 77 77 78
53 55 57 60 62 64 65 68 71 68 69 69 70 72 73 77 80 81 85 87 89 81 74 72 73 79 80 76 74 75 76 75 76 76 77 75 75 74 71 72 72 71 72 72
58 59 60 64 67 68 70 68 70 70 70 70 71 75 79 82 83 88 90 86 75 72 74 79 84 78 76 76 75 75 76 78 77 74 70 68 66 63 63 61 61 63 65 68
62 60 61 65 68 70 73 73 71 70 68 70 74 80 85 85 88 91 81 73 73 78 83 82 78 79 78 78 79 79 76 70 65 62 60 58 56 55 54 53 51 51 53 56
68 65 66 68 69 74 73 72 71 68 69 71 76 80 85 89 89 78 73 77 81 84 81 81 81 80 82 80 74 67 63 59 57 55 54 52 51 50 48 47 45 45 46 47
Wind_Direction
270 276 281 279 281 289 290 295 303 302 300 295 290 283 286 276 277 277 277 276 266 258 244 237 238 238 235 239 241 242 248 252 255 257 256 258 257 254 266 281 280 283 280 276
268 271 277 279 282 285 285 293 298 299 299 295 290 285 283 276 266 273 278 274 270 267 265 263 256 248 243 240 242 245 244 250 253 254 248 243 245 244 252 258 280 284 281 286
266 272 276 281 286 285 289 301 300 304 296 292 288 284 290 284 272 263 267 270 269 267 272 267 264 262 258 251 247 246 247 249 250 252 253 249 247 242 243 250 252 256 266 275
267 272 274 284 286 288 295 301 308 304 301 298 286 289 286 300 283 269 263 265 270 275 268 265 267 266 263 260 258 255 251 250 249 250 251 252 250 246 241 243 243 246 248 248
265 269 276 283 282 287 293 302 305 303 301 302 287 305 298 295 284 276 273 274 279 280 273 267 266 264 264 265 264 261 260 258 256 253 248 250 251 248 244 243 244 244 245 247
262 269 279 282 280 285 292 300 303 303 299 295 292 293 292 289 289 283 278 275 274 275 274 275 275 272 269 267 264 262 261 261 261 257 253 250 248 250 250 247 248 248 245 240
265 270 276 279 281 284 288 297 304 297 294 293 292 292 290 288 287 281 277 274 274 276 282 284 282 277 272 269 269 267 264 262 260 260 259 255 250 249 248 249 248 249 249 249
270 272 275 277 282 287 290 295 297 292 291 291 294 296 294 293 288 280 274 275 280 284 281 280 280 279 278 275 270 267 268 266 263 262 260 259 257 254 252 249 249 249 252 253
270 273 274 279 285 289 293 291 288 289 291 293 293 295 295 299 291 284 278 276 280 281 280 279 277 276 276 275 274 274 272 269 267 265 262 260 258 257 257 256 255 253 251 251
277 276 276 280 283 288 289 287 287 287 287 289 293 298 298 298 294 289 287 284 283 285 286 284 282 278 274 275 275 272 270 269 268 266 263 261 260 258 257 256 256 257 257 256
277 277 281 280 284 286 283 284 287 288 289 291 293 296 296 296 297 294 293 293 292 290 288 286 282 279 280 278 274 271 270 267 265 263 263 262 261 260 260 259 258 258 258 257
281 280 280 282 286 282 282 284 286 288 290 291 293 294 295 298 297 294 292 291 287 284 281 278 278 279 280 277 274 272 269 267 265 263 262 261 260 260 261 260 260 259 260 260
286 285 285 285 283 281 281 282 284 288 290 291 295 294 297 299 299 298 295 292 289 286 278 276 279 288 288 282 277 273 271 268 267 266 264 263 262 261 261 260 260 261 262 262
288 287 286 286 286 285 283 283 286 288 290 292 295 297 300 300 299 298 298 298 296 298 298 293 298 296 295 289 285 278 272 269 267 265 263 261 260 261 261 261 262 263 264 264
287 286 286 285 286 286 284 284 288 294 295 297 299 300 302 301 300 302 302 300 302 304 304 305 305 302 300 295 290 283 276 270 265 263 262 261 260 260 261 261 262 264 266 268
287 288 285 286 285 284 281 284 285 290 297 299 298 300 301 299 300 302 303 304 304 305 306 307 307 304 302 296 293 283 278 272 270 269 266 264 264 264 265 266 265 266 267 269
287 287 286 285 283 279 281 289 291 295 297 299 303 303 302 302 303 304 304 305 305 305 306 308 306 306 304 298 291 287 284 278 274 271 270 269 268 266 265 266 267 267 267 267
283 284 284 281 282 279 282 290 293 297 302 304 305 304 303 302 303 305 305 304 304 304 304 305 306 305 304 300 296 292 289 282 276 274 271 269 269 270 271 272 273 274 272 270
277 280 279 277 280 282 288 293 296 300 304 305 304 303 301 303 304 305 303 302 303 304 305 305 306 305 301 298 296 296 295 287 281 277 274 272 271 272 270 268 269 271 272 273
276 277 273 276 278 284 290 293 298 301 302 303 302 300 301 302 301 301 302 303 304 304 305 304 305 301 298 297 295 297 295 288 281 277 276 276 274 274 273 271 269 269 270 270
278 272 272 276 279 282 289 293 296 300 301 302 300 300 300 299 300 303 304 304 304 305 303 304 302 300 298 297 297 299 295 290 286 283 281 280 279 277 275 274 274 272 269 267
273 273 272 276 281 287 291 293 296 299 301 299 299 299 298 299 302 304 305 304 305 304 303 301 300 300 299 298 299 297 294 291 288 285 284 282 279 277 276 275 273 271 271 271
271 271 272 276 283 287 290 294 298 302 299 299 297 295 297 301 303 304 302 304 305 304 302 302 303 302 302 300 298 296 295 292 290 288 286 286 283 280 277 274 273 271 269 270
267 270 275 279 283 286 289 291 296 297 298 297 295 298 301 304 305 304 306 305 304 303 303 303 303 302 301 299 297 295 293 293 291 291 289 287 286 283 280 278 275 272 270 269
271 275 277 278 281 284 287 291 294 295 294 295 299 301 302 305 304 306 304 303 303 303 304 304 304 303 302 300 298 297 296 294 293 292 290 289 288 286 284 280 277 275 273 271
270 274 277 281 283 286 289 293 293 292 292 296 300 302 304 305 306 305 304 304 305 306 306 306 305 304 302 300 300 297 296 295 295 294 292 291 289 287 286 285 282 279 276 273
Height
10878 10877 10878 10876 10876 10874 10874 10874 10871 10868 10866 10866 10863 10863 10868 10862 10855 10848 10844 10841 10847 10846 10854 10857 10859 10861 10866 10863 10866 10870 10870 10868 10868 10873 10880 10882 10883 10886 10891 10890 10886 10886 10887 10889
10873 10871 10872 10871 10871 10870 10866 10868 10867 10864 10860 10860 10855 10856 10864 10859 10852 10846 10841 10838 10838 10839 10840 10840 10841 10845 10849 10851 10851 10852 10856 10855 10855 10857 10863 10869 10871 10875 10878 10879 10878 10878 10878 10877
10866 10865 10865 10864 10864 10862 10860 10860 10860 10859 10855 10854 10852 10845 10855 10854 10851 10843 10836 10831 10831 10833 10835 10832 10830 10830 10831 10833 10836 10836 10835 10836 10840 10841 10841 10852 10856 10858 10862 10864 10867 10868 10868 10868
10860 10857 10857 10859 10855 10854 10853 10850 10848 10847 10847 10846 10844 10842 10849 10846 10842 10836 10830 10822 10822 10825 10825 10824 10821 10820 10818 10818 10817 10818 10819 10817 10820 10823 10825 10826 10835 10839 10844 10845 10851 10852 10854 10856
10854 10850 10849 10851 10848 10847 10846 10844 10840 10837 10837 10836 10834 10840 10838 10836 10833 10829 10823 10816 10812 10816 10815 10813 10810 10808 10808 10805 10805 10806 10803 10799 10799 10802 10807 10807 10810 10817 10822 10825 10825 10830 10835 10838
10846 10844 10843 10842 10841 10839 10838 10836 10832 10828 10826 10824 10828 10831 10832 10827 10824 10820 10815 10811 10807 10802 10801 10800 10798 10796 10794 10792 10790 10789 10789 10786 10782 10782 10785 10789 10793 10794 10797 10801 10801 10804 10811 10815
10837 10837 10835 10831 10831 10832 10829 10827 10825 10819 10816 10812 10815 10820 10820 10819 10815 10812 10804 10798 10793 10791 10791 10788 10784 10779 10777 10775 10773 10771 10772 10770 10768 10767 10766 10767 10770 10773 10775 10777 10780 10782 10785 10789
10828 10829 10826 10822 10818 10821 10820 10818 10814 10809 10806 10803 10801 10808 10808 10805 10802 10799 10795 10791 10787 10784 10779 10774 10767 10762 10759 10757 10757 10756 10754 10752 10751 10751 10750 10749 10751 10752 10753 10754 10756 10757 10759 10761
10817 10819 10818 10814 10808 10805 10808 10808 10804 10799 10793 10789 10788 10795 10796 10792 10790 10788 10787 10784 10779 10773 10766 10761 10755 10748 10741 10741 10743 10741 10738 10737 10734 10732 10731 10732 10732 10732 10732 10731 10732 10732 10734 10736
10807 10806 10806 10806 10802 10797 10792 10790 10790 10789 10785 10779 10773 10778 10778 10778 10778 10775 10773 10768 10763 10758 10748 10739 10733 10726 10721 10724 10724 10723 10722 10719 10716 10713 10711 10710 10709 10708 10709 10710 10711 10710 10710 10710
10797 10794 10792 10793 10793 10789 10783 10779 10774 10773 10772 10769 10765 10763 10764 10765 10763 10762 10756 10752 10745 10737 10728 10719 10710 10700 10703 10706 10707 10703 10697 10696 10694 10692 10690 10689 10687 10686 10685 10685 10686 10686 10685 10685
10786 10784 10778 10778 10781 10779 10772 10767 10763 10760 10757 10754 10755 10751 10747 10750 10751 10747 10745 10737 10730 10723 10715 10704 10695 10688 10684 10683 10680 10680 10677 10674 10671 10670 10669 10666 10665 10664 10662 10660 10659 10659 10658 10658
10772 10772 10767 10763 10767 10767 10762 10756 10753 10749 10745 10739 10740 10737 10735 10732 10729 10726 10721 10718 10713 10704 10697 10689 10683 10676 10666 10658 10660 10658 10656 10655 10651 10650 10648 10644 10642 10640 10638 10637 10634 10632 10633 10634
10762 10760 10757 10751 10751 10752 10750 10743 10740 10739 10736 10732 10727 10723 10715 10713 10712 10705 10701 10696 10689 10685 10677 10671 10667 10657 10648 10638 10635 10633 10633 10634 10632 10630 10627 10623 10619 10615 10611 10610 10608 10605 10604 10605
10749 10748 10746 10741 10737 10740 10736 10732 10728 10726 10722 10719 10714 10709 10705 10697 10688 10684 10681 10677 10669 10664 10658 10651 10646 10641 10633 10621 10613 10608 10609 10607 10607 10606 10604 10601 10597 10592 10586 10584 10583 10580 10579 10578
10733 10732 10733 10730 10726 10724 10722 10724 10720 10715 10710 10705 10700 10695 10692 10684 10677 10670 10662 10656 10650 10643 10637 10630 10623 10617 10610 10601 10591 10586 10582 10584 10580 10580 10580 10578 10573 10571 10564 10559 10560 10557 10556 10554
10720 10716 10717 10717 10716 10712 10709 10706 10704 10700 10696 10689 10685 10678 10672 10666 10659 10651 10644 10638 10631 10622 10615 10608 10600 10593 10586 10577 10571 10564 10560 10556 10555 10552 10550 10549 10547 10543 10539 10532 10529 10530 10531 10531
10712 10704 10704 10700 10700 10699 10699 10695 10689 10682 10679 10673 10665 10660 10654 10647 10642 10635 10627 10619 10612 10604 10596 10588 10579 10572 10563 10554 10548 10544 10540 10535 10532 10529 10527 10524 10519 10516 10515 10510 10503 10496 10495 10496
10698 10695 10693 10689 10685 10683 10682 10681 10672 10667 10663 10655 10646 10641 10636 10630 10625 10620 10612 10603 10593 10584 10575 10567 10559 10551 10543 10535 10527 10521 10516 10510 10507 10505 10500 10497 10497 10495 10492 10487 10480 10475 10473 10469
10684 10682 10679 10679 10677 10673 10666 10666 10662 10653 10647 10641 10633 10623 10616 10613 10609 10603 10597 10588 10576 10565 10558 10547 10539 10531 10523 10515 10508 10500 10494 10489 10481 10476 10472 10470 10468 10465 10463 10460 10457 10452 10449 10445
10666 10666 10665 10663 10664 10662 10657 10653 10646 10641 10634 10625 10616 10610 10602 10594 10587 10579 10573 10565 10556 10545 10535 10526 10517 10509 10500 10492 10486 10477 10469 10464 10457 10451 10446 10441 10439 10437 10435 10431 10428 10424 10421 10419
10651 10650 10648 10648 10648 10647 10641 10635 10631 10626 10619 10610 10601 10594 10585 10578 10570 10562 10552 10541 10530 10522 10513 10504 10498 10491 10481 10471 10463 10454 10448 10441 10433 10426 10419 10413 10410 10408 10408 10404 10400 10397 10395 10392
10637 10636 10635 10633 10631 10629 10625 10618 10611 10607 10599 10594 10586 10579 10571 10564 10556 10545 10533 10522 10510 10498 10488 10481 10475 10466 10459 10448 10439 10430 10421 10414 10406 10398 10393 10388 10383 10380 10377 10374 10373 10371 10368 10365
10622 10624 10623 10619 10614 10611 10607 10605 10598 10590 10583 10576 10568 10560 10551 10544 10534 10519 10509 10498 10487 10479 10469 10461 10451 10442 10434 10425 10416 10407 10398 10389 10380 10373 10366 10359 10355 10352 10349 10348 10346 10344 10341 10339
10604 10610 10610 10605 10601 10596 10590 10587 10582 10576 10567 10559 10550 10540 10531 10524 10512 10500 10487 10477 10468 10457 10448 10438 10428 10416 10407 10398 10389 10381 10372 10363 10356 10350 10343 10338 10335 10330 10327 10326 10324 10321 10319 10317
10592 10595 10590 10586 10580 10576 10571 10569 10565 10560 10551 10545 10537 10525 10514 10500 10488 10477 10467 10456 10447 10436 10424 10413 10403 10394 10383 10373 10363 10355 10348 10341 10335 10329 10324 10320 10316 10312 10308 10306 10305 10303 10300 10299